Location: ?astrovice
(49.6513°N, 14.9287°E)
Time: 09:00:10
(UTC+00:00)

Cosmos 614 Rocket - Pass Details

Date: 09 April 2020
Orbit: 734 x 763 km, 74.1° (Epoch: 06 June)

Event Time Altitude Azimuth Distance (km) Brightness Sun altitude
Rises 18:32:02 0° 197° (SSW) 3,214 7.2 -8.1°
Reaches altitude 10° 18:34:24 10° 196° (SSW) 2,291 6.4 -8.4°
Maximum altitude 18:39:36 78° 111° (ESE) 781 3.9 -9.2°
Drops below altitude 10° 18:44:48 10° 26° (NNE) 2,295 6.5 -10.0°
Sets 18:47:10 0° 25° (NNE) 3,220 7.2 -10.3°
